TimeCDT,TemperatureF,Dew PointF,Humidity,Sea Level PressureIn,VisibilityMPH,Wind Direction,Wind SpeedMPH,Gust SpeedMPH,PrecipitationIn,Events,Conditions,WindDirDegrees,DateUTC
12:58 AM,26.6,18.1,70,30.32,10.0,NW,4.6,-,N/A,,Clear,310,2013-05-12 05:58:00
1:58 AM,25.2,18.3,75,30.31,10.0,NW,4.6,-,N/A,,Clear,310,2013-05-12 06:58:00
2:58 AM,23.2,19.2,85,30.30,10.0,NW,3.5,-,N/A,,Clear,310,2013-05-12 07:58:00
3:58 AM,22.5,19.4,88,30.30,10.0,WNW,3.5,-,N/A,,Clear,300,2013-05-12 08:58:00
4:58 AM,22.5,19.2,87,30.30,10.0,West,3.5,-,N/A,,Clear,280,2013-05-12 09:58:00
5:58 AM,21.0,18.9,91,30.30,10.0,West,3.5,-,N/A,,Clear,280,2013-05-12 10:58:00
6:58 AM,25.2,22.1,88,30.30,10.0,West,3.5,-,N/A,,Clear,270,2013-05-12 11:58:00
7:58 AM,37.8,26.4,64,30.30,10.0,Calm,Calm,-,N/A,,Clear,0,2013-05-12 12:58:00
8:58 AM,42.6,19.2,39,30.29,10.0,SW,4.6,-,N/A,,Clear,220,2013-05-12 13:58:00
9:58 AM,45.9,19.4,35,30.30,10.0,Variable,5.8,-,N/A,,Clear,0,2013-05-12 14:58:00
10:58 AM,50.4,17.8,28,30.27,10.0,WSW,6.9,-,N/A,,Clear,250,2013-05-12 15:58:00
11:58 AM,52.9,19.8,27,30.25,10.0,Variable,5.8,-,N/A,,Clear,0,2013-05-12 16:58:00
12:58 PM,54.3,19.8,26,30.22,10.0,SSW,8.1,-,N/A,,Clear,210,2013-05-12 17:58:00
1:58 PM,55.6,20.1,25,30.19,10.0,Variable,2.3,-,N/A,,Clear,0,2013-05-12 18:58:00
2:58 PM,58.3,20.8,23,30.17,10.0,South,6.9,-,N/A,,Clear,190,2013-05-12 19:58:00
3:58 PM,60.6,19.0,20,30.15,10.0,Variable,2.3,-,N/A,,Clear,0,2013-05-12 20:58:00
4:58 PM,61.0,17.4,18,30.12,10.0,Calm,Calm,-,N/A,,Clear,0,2013-05-12 21:58:00
5:48 PM,62.6,17.6,18,30.05,10.0,West,15.0,21.9,N/A,,Clear,270,2013-05-12 22:48:00
5:49 PM,62.6,17.6,18,30.06,10.0,NW,13.8,21.9,N/A,,Clear,310,2013-05-12 22:49:00
5:58 PM,62.2,17.4,18,30.11,10.0,NW,5.8,21.9,N/A,,Clear,310,2013-05-12 22:58:00
6:58 PM,61.0,15.8,17,30.09,10.0,North,2.3,-,N/A,,Clear,10,2013-05-12 23:58:00
7:58 PM,59.4,19.0,21,30.06,10.0,ESE,6.9,-,N/A,,Clear,110,2013-05-13 00:58:00
8:58 PM,55.8,25.0,31,30.05,10.0,ESE,8.1,-,N/A,,Clear,120,2013-05-13 01:58:00
9:58 PM,54.1,25.2,33,30.04,10.0,SE,10.4,-,N/A,,Clear,140,2013-05-13 02:58:00
10:58 PM,52.0,23.9,34,30.03,10.0,SSE,12.7,-,N/A,,Clear,150,2013-05-13 03:58:00
11:58 PM,51.3,23.2,33,30.00,10.0,SSE,13.8,-,N/A,,Partly Cloudy,160,2013-05-13 04:58:00